User: anonymous
Location: Fort Wayne
(41.1310°N, 85.1290°W)
Time: 04:24:03
(UTC-04:00)
Language:

Cosmos 1980 - Orbit

View from above orbital plane
View from above orbital plane
View from above satellite
View from above satellite

Ground track
Ground track

The orbit data is extracted from the following two-line orbital elements,

1 19649U 88102A   14203.81044727 -.00000266  00000-0 -11384-3 0  8109
2 19649 071.0023 131.2249 0003325 140.9411 219.1952 14.14547587324610
Epoch (UTC): 22 July 2014 19:27:02
Eccentricity: 0.0003325
inclination: 71.0023°
perigee height: 841 km
apogee height: 846 km
right ascension of ascending node: 131.2249°
argument of perigee: 140.9411°
revolutions per day: 14.14547587
mean anomaly at epoch: 219.1952°
orbit number at epoch: 32461

The dashed part of the orbit path shows where the satellite is in the earth's shadow,  

DLR